| time (UTC) | temp C | wind direction | speed KPH | gust KPH | rain 1hr cm | rain 24hr cm | rain mn cm | humidity % | barometer mb |
| 20260507130540 | 11 | 90 | 4.8 | 9.7 | 0.00 | 0.43 | 0.20 | 70 | 1007.4 |
| 20260507130031 | 11 | 206 | 4.8 | 9.7 | 0.00 | 0.43 | 0.20 | 70 | 1007.4 |
| 20260507125522 | 11 | 222 | 6.4 | 12.9 | 0.00 | 0.43 | 0.20 | 71 | 1007.6 |
| 20260507125033 | 11 | 205 | 4.8 | 12.9 | 0.00 | 0.43 | 0.20 | 74 | 1007.4 |
| 20260507124522 | 11 | 241 | 4.8 | 8.0 | 0.00 | 0.43 | 0.20 | 77 | 1007.4 |
| 20260507124033 | 10 | 191 | 1.6 | 8.0 | 0.00 | 0.43 | 0.20 | 79 | 1007.4 |
| 20260507123524 | 10 | 91 | 4.8 | 8.0 | 0.00 | 0.43 | 0.20 | 81 | 1007.2 |
| 20260507123035 | 10 | 125 | 3.2 | 6.4 | 0.00 | 0.43 | 0.20 | 83 | 1007.3 |
| 20260507122530 | 10 | 195 | 1.6 | 4.8 | 0.00 | 0.43 | 0.20 | 86 | 1007.3 |
| 20260507122041 | 10 | 186 | 1.6 | 6.4 | 0.00 | 0.43 | 0.20 | 86 | 1007.3 |
| 20260507121530 | 9 | 63 | 3.2 | 6.4 | 0.00 | 0.43 | 0.20 | 87 | 1007.4 |
| 20260507121101 | 9 | 169 | 3.2 | 6.4 | 0.00 | 0.43 | 0.20 | 88 | 1007.2 |
| 20260507120532 | 9 | 174 | 4.8 | 6.4 | 0.00 | 0.43 | 0.20 | 89 | 1007.3 |
| 20260507120021 | 9 | 132 | 1.6 | 4.8 | 0.00 | 0.43 | 0.20 | 91 | 1007.3 |
| 20260507115532 | 8 | 132 | 3.2 | 4.8 | 0.00 | 0.43 | 0.20 | 91 | 1007.3 |
| 20260507115023 | 9 | 79 | 0.0 | 4.8 | 0.00 | 0.43 | 0.20 | 92 | 1007.1 |
| 20260507114533 | 8 | 79 | 1.6 | 4.8 | 0.00 | 0.43 | 0.20 | 92 | 1007.0 |
| 20260507114027 | 8 | 58 | 1.6 | 4.8 | 0.00 | 0.43 | 0.20 | 93 | 1007.3 |
| 20260507113538 | 8 | 187 | 0.0 | 0.0 | 0.00 | 0.43 | 0.20 | 93 | 1007.2 |
| 20260507113048 | 9 | 187 | 0.0 | 0.0 | 0.00 | 0.43 | 0.20 | 93 | 1007.1 |
| 20260507112538 | 8 | 187 | 0.0 | 0.0 | 0.00 | 0.43 | 0.20 | 93 | 1007.1 |
| 20260507112049 | 9 | 187 | 0.0 | 0.0 | 0.00 | 0.43 | 0.20 | 93 | 1007.0 |
| 20260507111520 | 9 | 187 | 0.0 | 0.0 | 0.00 | 0.43 | 0.20 | 93 | 1007.0 |
| 20260507111031 | 9 | 187 | 0.0 | 0.0 | 0.00 | 0.43 | 0.20 | 93 | 1007.0 |
| 20260507110523 | 8 | 187 | 0.0 | 0.0 | 0.03 | 0.43 | 0.20 | 93 | 1007.1 |
| 20260507110034 | 8 | 187 | 0.0 | 0.0 | 0.03 | 0.43 | 0.20 | 93 | 1007.2 |
| 20260507105524 | 8 | 187 | 0.0 | 0.0 | 0.05 | 0.43 | 0.20 | 93 | 1007.3 |
| 20260507105039 | 8 | 187 | 0.0 | 0.0 | 0.05 | 0.43 | 0.20 | 93 | 1007.3 |
| 20260507104529 | 8 | 187 | 0.0 | 0.0 | 0.05 | 0.43 | 0.20 | 92 | 1007.1 |
| 20260507104100 | 9 | 187 | 0.0 | 0.0 | 0.05 | 0.43 | 0.20 | 93 | 1007.2 |
| 20260507103551 | 9 | 187 | 0.0 | 0.0 | 0.05 | 0.43 | 0.20 | 92 | 1006.9 |
| 20260507103021 | 8 | 187 | 0.0 | 0.0 | 0.08 | 0.43 | 0.20 | 92 | 1006.7 |
| 20260507102531 | 8 | 187 | 0.0 | 0.0 | 0.10 | 0.43 | 0.20 | 92 | 1006.8 |
| 20260507102021 | 8 | 187 | 0.0 | 0.0 | 0.13 | 0.43 | 0.20 | 92 | 1006.9 |
| 20260507101552 | 8 | 187 | 0.0 | 0.0 | 0.13 | 0.43 | 0.20 | 92 | 1006.8 |
| 20260507101022 | 9 | 187 | 0.0 | 0.0 | 0.13 | 0.43 | 0.20 | 92 | 1006.7 |
| 20260507100532 | 9 | 187 | 0.0 | 0.0 | 0.10 | 0.41 | 0.18 | 91 | 1006.5 |
| 20260507100027 | 9 | 187 | 0.0 | 1.6 | 0.13 | 0.41 | 0.18 | 91 | 1006.5 |
| 20260507095539 | 9 | 187 | 0.0 | 3.2 | 0.10 | 0.38 | 0.15 | 91 | 1006.4 |
| 20260507095030 | 9 | 187 | 0.0 | 3.2 | 0.10 | 0.38 | 0.15 | 91 | 1006.3 |
| 20260507094540 | 9 | 187 | 0.0 | 3.2 | 0.10 | 0.38 | 0.15 | 91 | 1006.5 |
| 20260507094030 | 9 | 185 | 1.6 | 3.2 | 0.10 | 0.38 | 0.15 | 90 | 1006.7 |
| 20260507093521 | 9 | 96 | 1.6 | 3.2 | 0.10 | 0.38 | 0.15 | 90 | 1006.5 |
| 20260507093033 | 9 | 96 | 1.6 | 3.2 | 0.08 | 0.36 | 0.13 | 89 | 1006.5 |
| 20260507092524 | 10 | 113 | 0.0 | 3.2 | 0.05 | 0.33 | 0.10 | 89 | 1006.5 |
| 20260507092035 | 10 | 113 | 1.6 | 9.7 | 0.03 | 0.30 | 0.08 | 89 | 1006.6 |
| 20260507091530 | 10 | 105 | 3.2 | 9.7 | 0.03 | 0.30 | 0.08 | 88 | 1006.5 |
| 20260507091040 | 10 | 127 | 3.2 | 8.0 | 0.03 | 0.30 | 0.08 | 88 | 1006.8 |
| 20260507090529 | 10 | 105 | 3.2 | 8.0 | 0.03 | 0.28 | 0.05 | 87 | 1006.7 |
| 20260507090021 | 10 | 41 | 1.6 | 9.7 | 0.03 | 0.28 | 0.05 | 87 | 1006.5 |
| 20260507085532 | 10 | 199 | 3.2 | 6.4 | 0.03 | 0.28 | 0.05 | 87 | 1006.5 |
| 20260507085042 | 10 | 189 | 1.6 | 4.8 | 0.05 | 0.28 | 0.05 | 87 | 1006.5 |
| 20260507084532 | 10 | 143 | 1.6 | 4.8 | 0.05 | 0.28 | 0.05 | 87 | 1006.3 |
| 20260507084022 | 10 | 68 | 1.6 | 4.8 | 0.05 | 0.28 | 0.05 | 87 | 1006.3 |
| 20260507083532 | 10 | 161 | 1.6 | 6.4 | 0.05 | 0.28 | 0.05 | 87 | 1006.2 |
| 20260507083027 | 10 | 124 | 1.6 | 8.0 | 0.05 | 0.28 | 0.05 | 86 | 1006.1 |
| 20260507082538 | 10 | 193 | 4.8 | 8.0 | 0.05 | 0.28 | 0.05 | 86 | 1006.0 |
| 20260507082049 | 10 | 94 | 0.0 | 11.3 | 0.05 | 0.28 | 0.05 | 86 | 1005.9 |
| 20260507081538 | 10 | 93 | 1.6 | 11.3 | 0.05 | 0.28 | 0.05 | 86 | 1006.2 |
| 20260507081029 | 10 | 150 | 4.8 | 9.7 | 0.05 | 0.28 | 0.05 | 86 | 1006.3 |
| 20260507080519 | 10 | 157 | 6.4 | 12.9 | 0.03 | 0.25 | 0.03 | 86 | 1006.3 |
| 20260507080030 | 11 | 132 | 6.4 | 14.5 | 0.03 | 0.25 | 0.03 | 85 | 1006.3 |
| 20260507075520 | 11 | 176 | 4.8 | 17.7 | 0.03 | 0.25 | 0.03 | 83 | 1006.0 |
| 20260507075032 | 11 | 116 | 4.8 | 17.7 | 0.00 | 0.23 | 0.00 | 83 | 1006.2 |
| 20260507074527 | 11 | 148 | 6.4 | 14.5 | 0.00 | 0.23 | 0.00 | 82 | 1006.2 |
| 20260507074037 | 11 | 127 | 3.2 | 6.4 | 0.00 | 0.23 | 0.00 | 84 | 1005.9 |
| 20260507073527 | 11 | 239 | 3.2 | 9.7 | 0.00 | 0.23 | 0.00 | 84 | 1005.6 |
| 20260507073058 | 11 | 262 | 4.8 | 9.7 | 0.00 | 0.23 | 0.00 | 83 | 1005.6 |
| 20260507072527 | 11 | 70 | 3.2 | 8.0 | 0.00 | 0.23 | 0.00 | 84 | 1005.7 |
| 20260507072038 | 11 | 150 | 4.8 | 8.0 | 0.00 | 0.23 | 0.00 | 85 | 1005.6 |
| 20260507071529 | 11 | 53 | 3.2 | 11.3 | 0.00 | 0.23 | 0.00 | 85 | 1005.8 |
| 20260507071020 | 11 | 144 | 4.8 | 11.3 | 0.00 | 0.23 | 0.00 | 86 | 1005.6 |
| 20260507070532 | 12 | 222 | 1.6 | 4.8 | 0.00 | 0.23 | 0.00 | 87 | 1005.5 |
| 20260507070048 | 12 | 143 | 3.2 | 6.4 | 0.00 | 0.23 | 0.00 | 86 | 1005.4 |
| 20260507065536 | 12 | 139 | 1.6 | 8.0 | 0.00 | 0.23 | 0.00 | 86 | 1005.6 |
| 20260507065028 | 12 | 131 | 3.2 | 8.0 | 0.00 | 0.23 | 0.00 | 86 | 1005.6 |
| 20260507064539 | 12 | 33 | 1.6 | 6.4 | 0.00 | 0.23 | 0.00 | 86 | 1005.5 |
| 20260507064030 | 12 | 33 | 1.6 | 11.3 | 0.00 | 0.23 | 0.00 | 86 | 1005.5 |
| 20260507063600 | 12 | 181 | 6.4 | 11.3 | 0.00 | 0.23 | 0.00 | 87 | 1005.4 |
| 20260507063028 | 12 | 176 | 4.8 | 9.7 | 0.00 | 0.23 | 0.00 | 87 | 1005.3 |
| 20260507062600 | 12 | 159 | 4.8 | 12.9 | 0.00 | 0.23 | 0.00 | 87 | 1005.2 |
| 20260507062029 | 12 | 93 | 6.4 | 12.9 | 0.00 | 0.23 | 0.00 | 87 | 1005.4 |
| 20260507061539 | 12 | 160 | 3.2 | 9.7 | 0.00 | 0.23 | 0.00 | 87 | 1005.4 |
| 20260507061034 | 12 | 214 | 3.2 | 8.0 | 0.00 | 0.23 | 0.00 | 87 | 1005.4 |
| 20260507060524 | 12 | 168 | 1.6 | 6.4 | 0.00 | 0.23 | 0.00 | 87 | 1005.6 |
| 20260507060036 | 12 | 129 | 4.8 | 14.5 | 0.00 | 0.23 | 0.00 | 87 | 1005.5 |
| 20260507055527 | 13 | 112 | 4.8 | 16.1 | 0.00 | 0.23 | 0.00 | 88 | 1005.5 |
| 20260507055037 | 13 | 70 | 3.2 | 12.9 | 0.00 | 0.23 | 0.00 | 89 | 1005.7 |
| 20260507054527 | 13 | 229 | 3.2 | 4.8 | 0.00 | 0.23 | 0.00 | 89 | 1005.7 |
| 20260507054059 | 13 | 130 | 3.2 | 6.4 | 0.00 | 0.23 | 0.00 | 89 | 1005.7 |
| 20260507053529 | 13 | 195 | 1.6 | 12.9 | 0.00 | 0.23 | 0.00 | 89 | 1005.6 |
| 20260507053039 | 13 | 105 | 4.8 | 12.9 | 0.00 | 0.23 | 0.00 | 89 | 1005.5 |
| 20260507052533 | 13 | 77 | 3.2 | 11.3 | 0.00 | 0.23 | 0.00 | 89 | 1005.3 |
| 20260507052022 | 13 | 188 | 4.8 | 9.7 | 0.00 | 0.23 | 0.00 | 90 | 1005.2 |
| 20260507051534 | 13 | 185 | 3.2 | 14.5 | 0.00 | 0.23 | 0.00 | 90 | 1005.5 |
| 20260507051025 | 13 | 205 | 3.2 | 14.5 | 0.00 | 0.23 | 0.00 | 90 | 1005.4 |
| 20260507050536 | 14 | 129 | 4.8 | 14.5 | 0.00 | 0.23 | 0.00 | 89 | 1005.5 |
| 20260507050046 | 14 | 143 | 8.0 | 14.5 | 0.00 | 0.23 | 0.00 | 89 | 1005.6 |
| 20260507045536 | 14 | 136 | 8.0 | 12.9 | 0.00 | 0.23 | 0.00 | 89 | 1005.5 |
| 20260507045026 | 14 | 68 | 4.8 | 12.9 | 0.00 | 0.23 | 0.00 | 91 | 1005.4 |
| 20260507044537 | 15 | 190 | 1.6 | 8.0 | 0.00 | 0.23 | 0.00 | 92 | 1005.3 |
| 20260507044047 | 15 | 77 | 1.6 | 6.4 | 0.00 | 0.23 | 0.00 | 93 | 1005.1 |
| 20260507043521 | 15 | 94 | 3.2 | 16.1 | 0.00 | 0.23 | 0.00 | 93 | 1005.3 |
| 20260507043031 | 15 | 174 | 4.8 | 16.1 | 0.00 | 0.23 | 0.00 | 93 | 1005.5 |
| 20260507042522 | 15 | 74 | 3.2 | 9.7 | 0.00 | 0.23 | 0.00 | 93 | 1005.3 |
| 20260507042033 | 15 | 91 | 3.2 | 9.7 | 0.00 | 0.23 | 0.00 | 94 | 1005.4 |
| 20260507041524 | 15 | 25 | 1.6 | 9.7 | 0.00 | 0.23 | 0.00 | 94 | 1005.3 |
| 20260507041033 | 15 | 54 | 3.2 | 8.0 | 0.00 | 0.23 | 0.00 | 94 | 1005.5 |
| 20260507040523 | 15 | 89 | 4.8 | 9.7 | 0.00 | 0.23 | 0.00 | 94 | 1005.5 |
| 20260507040031 | 15 | 90 | 3.2 | 12.9 | 0.00 | 0.23 | 0.23 | 94 | 1005.5 |
| 20260507035541 | 15 | 45 | 3.2 | 12.9 | 0.00 | 0.23 | 0.23 | 94 | 1005.4 |
| 20260507035034 | 15 | 72 | 8.0 | 14.5 | 0.00 | 0.23 | 0.23 | 94 | 1005.2 |
| 20260507034525 | 15 | 70 | 4.8 | 16.1 | 0.00 | 0.23 | 0.23 | 93 | 1005.3 |
| 20260507034034 | 15 | 28 | 3.2 | 16.1 | 0.00 | 0.23 | 0.23 | 93 | 1005.5 |
| 20260507033524 | 15 | 111 | 4.8 | 17.7 | 0.00 | 0.23 | 0.23 | 93 | 1005.4 |
| 20260507033034 | 15 | 80 | 6.4 | 17.7 | 0.00 | 0.23 | 0.23 | 93 | 1005.2 |
| 20260507032525 | 15 | 66 | 4.8 | 14.5 | 0.00 | 0.23 | 0.23 | 92 | 1005.0 |
| 20260507032056 | 15 | 80 | 3.2 | 14.5 | 0.00 | 0.23 | 0.23 | 92 | 1004.8 |
| 20260507031526 | 15 | 43 | 6.4 | 11.3 | 0.00 | 0.23 | 0.23 | 92 | 1004.7 |
| 20260507031038 | 15 | 37 | 4.8 | 9.7 | 0.00 | 0.23 | 0.23 | 92 | 1004.7 |
| 20260507030532 | 15 | 58 | 3.2 | 8.0 | 0.00 | 0.23 | 0.23 | 92 | 1004.6 |
| 20260507030022 | 15 | 340 | 3.2 | 20.9 | 0.00 | 0.23 | 0.23 | 92 | 1004.6 |
| 20260507025552 | 15 | 88 | 4.8 | 20.9 | 0.00 | 0.23 | 0.23 | 92 | 1004.8 |
| 20260507025021 | 15 | 34 | 3.2 | 12.9 | 0.00 | 0.23 | 0.23 | 92 | 1004.7 |
| 20260507024532 | 15 | 54 | 4.8 | 11.3 | 0.00 | 0.23 | 0.23 | 92 | 1004.8 |
| 20260507024024 | 15 | 55 | 6.4 | 11.3 | 0.00 | 0.23 | 0.23 | 92 | 1004.8 |
| 20260507023535 | 15 | 14 | 3.2 | 14.5 | 0.00 | 0.23 | 0.23 | 92 | 1004.9 |
| 20260507023025 | 15 | 103 | 3.2 | 14.5 | 0.00 | 0.23 | 0.23 | 92 | 1005.0 |
| 20260507022536 | 15 | 42 | 1.6 | 12.9 | 0.00 | 0.23 | 0.23 | 92 | 1005.0 |
| 20260507022032 | 15 | 51 | 3.2 | 17.7 | 0.00 | 0.23 | 0.23 | 92 | 1005.0 |
| 20260507021523 | 15 | 65 | 6.4 | 17.7 | 0.00 | 0.23 | 0.23 | 93 | 1004.9 |
| 20260507021033 | 15 | 44 | 3.2 | 17.7 | 0.00 | 0.23 | 0.23 | 93 | 1004.9 |
| 20260507020524 | 14 | 51 | 8.0 | 17.7 | 0.00 | 0.23 | 0.23 | 93 | 1005.0 |
| 20260507020035 | 14 | 79 | 4.8 | 17.7 | 0.00 | 0.23 | 0.23 | 93 | 1005.1 |
| 20260507015526 | 14 | 61 | 6.4 | 19.3 | 0.00 | 0.23 | 0.23 | 93 | 1005.1 |
| 20260507015035 | 14 | 60 | 6.4 | 19.3 | 0.00 | 0.23 | 0.23 | 93 | 1005.2 |
| 20260507014526 | 14 | 332 | 3.2 | 14.5 | 0.00 | 0.23 | 0.23 | 93 | 1005.0 |
| 20260507014021 | 14 | 40 | 4.8 | 14.5 | 0.00 | 0.23 | 0.23 | 93 | 1005.2 |
| 20260507013532 | 14 | 50 | 4.8 | 20.9 | 0.00 | 0.23 | 0.23 | 93 | 1005.2 |
| 20260507013022 | 14 | 53 | 1.6 | 20.9 | 0.00 | 0.23 | 0.23 | 93 | 1005.2 |
| 20260507012534 | 14 | 33 | 8.0 | 19.3 | 0.00 | 0.23 | 0.23 | 93 | 1005.3 |
| 20260507012025 | 14 | 80 | 6.4 | 19.3 | 0.00 | 0.23 | 0.23 | 93 | 1005.3 |
| 20260507011557 | 14 | 41 | 3.2 | 19.3 | 0.00 | 0.23 | 0.23 | 93 | 1005.3 |
| 20260507011027 | 13 | 40 | 1.6 | 14.5 | 0.00 | 0.23 | 0.23 | 93 | 1005.3 |
| 20260507010539 | 13 | 49 | 1.6 | 16.1 | 0.03 | 0.23 | 0.23 | 93 | 1005.4 |
| 20260507010028 | 13 | 65 | 4.8 | 16.1 | 0.03 | 0.23 | 0.23 | 93 | 1005.4 |
| 20260507005558 | 13 | 30 | 6.4 | 12.9 | 0.03 | 0.23 | 0.23 | 93 | 1005.3 |
| 20260507005032 | 13 | 54 | 3.2 | 16.1 | 0.03 | 0.23 | 0.23 | 94 | 1005.3 |
| 20260507004522 | 13 | 15 | 6.4 | 19.3 | 0.03 | 0.23 | 0.23 | 94 | 1005.4 |
| 20260507004033 | 13 | 24 | 3.2 | 19.3 | 0.03 | 0.23 | 0.23 | 94 | 1005.5 |
| 20260507003523 | 13 | 41 | 3.2 | 16.1 | 0.08 | 0.23 | 0.23 | 94 | 1005.4 |
| 20260507003034 | 13 | 31 | 4.8 | 14.5 | 0.08 | 0.23 | 0.23 | 94 | 1005.4 |
| 20260507002526 | 13 | 350 | 4.8 | 19.3 | 0.10 | 0.23 | 0.23 | 93 | 1005.3 |
| 20260507002036 | 13 | 60 | 6.4 | 19.3 | 0.13 | 0.23 | 0.23 | 93 | 1005.2 |
| 20260507001526 | 13 | 31 | 6.4 | 25.7 | 0.13 | 0.23 | 0.23 | 93 | 1005.2 |
| 20260507001019 | 13 | 24 | 6.4 | 25.7 | 0.13 | 0.23 | 0.23 | 93 | 1005.1 |
| 20260507000531 | 13 | 357 | 1.6 | 12.9 | 0.10 | 0.20 | 0.20 | 93 | 1005.2 |
| 20260507000023 | 13 | 39 | 6.4 | 14.5 | 0.10 | 0.20 | 0.20 | 93 | 1005.2 |
| 20260506235533 | 13 | 307 | 3.2 | 14.5 | 0.10 | 0.20 | 0.20 | 93 | 1005.3 |
| 20260506235024 | 13 | 360 | 3.2 | 9.7 | 0.10 | 0.20 | 0.20 | 93 | 1005.3 |
| 20260506234535 | 13 | 299 | 4.8 | 11.3 | 0.10 | 0.20 | 0.20 | 93 | 1005.2 |
| 20260506234025 | 13 | 49 | 4.8 | 17.7 | 0.10 | 0.20 | 0.20 | 92 | 1005.2 |
| 20260506233537 | 13 | 84 | 6.4 | 17.7 | 0.05 | 0.15 | 0.15 | 92 | 1005.2 |
| 20260506233027 | 13 | 336 | 4.8 | 14.5 | 0.05 | 0.15 | 0.15 | 92 | 1005.1 |
| 20260506232522 | 14 | 357 | 4.8 | 14.5 | 0.03 | 0.13 | 0.13 | 92 | 1005.3 |
| 20260506232033 | 14 | 32 | 4.8 | 16.1 | 0.00 | 0.10 | 0.10 | 92 | 1005.3 |
| 20260506231523 | 14 | 51 | 4.8 | 16.1 | 0.00 | 0.10 | 0.10 | 92 | 1005.2 |
| 20260506231055 | 14 | 15 | 4.8 | 17.7 | 0.00 | 0.10 | 0.10 | 92 | 1005.2 |
| 20260506230544 | 14 | 350 | 6.4 | 17.7 | 0.03 | 0.10 | 0.10 | 91 | 1005.3 |
| 20260506230033 | 14 | 328 | 8.0 | 17.7 | 0.03 | 0.10 | 0.10 | 91 | 1005.4 |
| 20260506225524 | 14 | 349 | 6.4 | 12.9 | 0.03 | 0.10 | 0.10 | 91 | 1005.4 |
| 20260506225035 | 15 | 342 | 4.8 | 19.3 | 0.03 | 0.10 | 0.10 | 91 | 1005.3 |
| 20260506224524 | 15 | 17 | 8.0 | 20.9 | 0.03 | 0.10 | 0.10 | 91 | 1005.3 |
| 20260506224034 | 15 | 91 | 9.7 | 24.1 | 0.03 | 0.10 | 0.10 | 91 | 1005.3 |
| 20260506223530 | 15 | 28 | 8.0 | 24.1 | 0.03 | 0.10 | 0.10 | 91 | 1005.4 |
| 20260506223040 | 15 | 8 | 6.4 | 12.9 | 0.03 | 0.10 | 0.10 | 91 | 1005.4 |
| 20260506222551 | 15 | 35 | 4.8 | 14.5 | 0.03 | 0.10 | 0.10 | 91 | 1005.6 |
| 20260506222020 | 15 | 14 | 4.8 | 14.5 | 0.03 | 0.10 | 0.10 | 90 | 1005.5 |
| 20260506221531 | 15 | 302 | 3.2 | 17.7 | 0.03 | 0.10 | 0.10 | 90 | 1005.5 |
| 20260506221022 | 15 | 72 | 8.0 | 17.7 | 0.00 | 0.08 | 0.08 | 90 | 1005.7 |
| 20260506220555 | 15 | 15 | 8.0 | 20.9 | 0.00 | 0.08 | 0.08 | 89 | 1005.8 |
| 20260506220025 | 15 | 51 | 4.8 | 20.9 | 0.00 | 0.08 | 0.08 | 88 | 1005.8 |
| 20260506215533 | 15 | 17 | 6.4 | 20.9 | 0.00 | 0.08 | 0.08 | 88 | 1005.9 |
| 20260506215024 | 15 | 360 | 9.7 | 20.9 | 0.03 | 0.08 | 0.08 | 88 | 1005.9 |
| 20260506214538 | 16 | 44 | 8.0 | 20.9 | 0.03 | 0.08 | 0.08 | 88 | 1005.9 |
| 20260506214027 | 16 | 79 | 4.8 | 20.9 | 0.03 | 0.08 | 0.08 | 88 | 1005.9 |
| 20260506213558 | 16 | 8 | 9.7 | 19.3 | 0.03 | 0.08 | 0.08 | 88 | 1005.9 |
| 20260506213047 | 15 | 28 | 8.0 | 22.5 | 0.03 | 0.08 | 0.08 | 87 | 1005.9 |
| 20260506212538 | 15 | 336 | 8.0 | 29.0 | 0.03 | 0.08 | 0.08 | 87 | 1006.0 |
| 20260506212028 | 15 | 11 | 6.4 | 19.3 | 0.03 | 0.08 | 0.08 | 87 | 1006.0 |
| 20260506211540 | 15 | 12 | 6.4 | 22.5 | 0.05 | 0.08 | 0.08 | 87 | 1006.1 |
| 20260506211051 | 15 | 56 | 4.8 | 22.5 | 0.05 | 0.08 | 0.08 | 87 | 1006.1 |
| 20260506210521 | 15 | 340 | 4.8 | 19.3 | 0.05 | 0.08 | 0.08 | 87 | 1006.2 |
| 20260506210053 | 15 | 23 | 9.7 | 19.3 | 0.05 | 0.08 | 0.08 | 86 | 1006.3 |
| 20260506205522 | 16 | 41 | 6.4 | 17.7 | 0.05 | 0.08 | 0.08 | 85 | 1006.3 |
| 20260506205053 | 16 | 51 | 4.8 | 17.7 | 0.03 | 0.05 | 0.05 | 84 | 1006.3 |
| 20260506204526 | 16 | 56 | 3.2 | 17.7 | 0.05 | 0.05 | 0.05 | 83 | 1006.3 |
| 20260506204034 | 16 | 14 | 8.0 | 24.1 | 0.05 | 0.05 | 0.05 | 82 | 1006.3 |
| 20260506203524 | 16 | 61 | 4.8 | 24.1 | 0.05 | 0.05 | 0.05 | 82 | 1006.3 |
| 20260506203035 | 16 | 22 | 6.4 | 24.1 | 0.05 | 0.05 | 0.05 | 82 | 1006.3 |
| 20260506202526 | 16 | 69 | 6.4 | 24.1 | 0.05 | 0.05 | 0.05 | 82 | 1006.2 |
| 20260506202037 | 16 | 45 | 8.0 | 24.1 | 0.05 | 0.05 | 0.05 | 82 | 1005.9 |
| 20260506201548 | 16 | 27 | 3.2 | 20.9 | 0.03 | 0.03 | 0.03 | 83 | 1006.0 |
| 20260506201037 | 16 | 350 | 8.0 | 22.5 | 0.03 | 0.03 | 0.03 | 83 | 1006.0 |
| 20260506200529 | 16 | 358 | 4.8 | 22.5 | 0.03 | 0.03 | 0.03 | 82 | 1006.1 |
| 20260506200024 | 16 | 19 | 6.4 | 20.9 | 0.03 | 0.03 | 0.03 | 82 | 1006.1 |
| 20260506195556 | 16 | 39 | 6.4 | 20.9 | 0.03 | 0.03 | 0.03 | 81 | 1006.3 |
| 20260506195025 | 17 | 21 | 8.0 | 17.7 | 0.03 | 0.03 | 0.03 | 80 | 1006.4 |
| 20260506194536 | 17 | 349 | 4.8 | 17.7 | 0.00 | 0.00 | 0.00 | 79 | 1006.3 |
| 20260506194026 | 17 | 321 | 1.6 | 19.3 | 0.00 | 0.00 | 0.00 | 79 | 1006.5 |
| 20260506193536 | 17 | 314 | 3.2 | 19.3 | 0.00 | 0.00 | 0.00 | 78 | 1006.5 |
| 20260506193026 | 17 | 34 | 4.8 | 12.9 | 0.00 | 0.00 | 0.00 | 76 | 1006.4 |
| 20260506192535 | 18 | 302 | 3.2 | 16.1 | 0.00 | 0.00 | 0.00 | 75 | 1006.4 |
| 20260506192045 | 18 | 23 | 3.2 | 16.1 | 0.00 | 0.00 | 0.00 | 73 | 1006.4 |
| 20260506191535 | 18 | 41 | 6.4 | 24.1 | 0.00 | 0.00 | 0.00 | 72 | 1006.2 |
| 20260506191029 | 18 | 356 | 4.8 | 27.4 | 0.00 | 0.00 | 0.00 | 72 | 1006.3 |
| 20260506190539 | 18 | 32 | 6.4 | 27.4 | 0.00 | 0.00 | 0.00 | 71 | 1006.3 |
| 20260506190030 | 18 | 33 | 6.4 | 25.7 | 0.00 | 0.00 | 0.00 | 71 | 1006.3 |
| 20260506185521 | 18 | 34 | 9.7 | 20.9 | 0.00 | 0.00 | 0.00 | 71 | 1006.3 |
| 20260506185032 | 18 | 37 | 6.4 | 29.0 | 0.00 | 0.00 | 0.00 | 70 | 1006.3 |
| 20260506184524 | 18 | 25 | 6.4 | 29.0 | 0.00 | 0.00 | 0.00 | 70 | 1006.3 |
| 20260506184034 | 18 | 349 | 3.2 | 19.3 | 0.00 | 0.00 | 0.00 | 71 | 1006.3 |
| 20260506183544 | 18 | 326 | 4.8 | 20.9 | 0.00 | 0.00 | 0.00 | 70 | 1006.4 |
| 20260506183054 | 18 | 6 | 8.0 | 20.9 | 0.00 | 0.00 | 0.00 | 70 | 1006.4 |
| 20260506182544 | 18 | 348 | 4.8 | 24.1 | 0.00 | 0.00 | 0.00 | 69 | 1006.4 |
| 20260506182053 | 19 | 20 | 4.8 | 20.9 | 0.00 | 0.00 | 0.00 | 69 | 1006.4 |
| 20260506181526 | 19 | 309 | 8.0 | 20.9 | 0.00 | 0.00 | 0.00 | 68 | 1006.5 |
| 20260506181037 | 19 | 51 | 8.0 | 19.3 | 0.00 | 0.00 | 0.00 | 69 | 1006.7 |
| 20260506180529 | 19 | 359 | 6.4 | 22.5 | 0.00 | 0.00 | 0.00 | 69 | 1006.8 |
| 20260506180019 | 19 | 30 | 8.0 | 22.5 | 0.00 | 0.00 | 0.00 | 69 | 1006.8 |
| 20260506175531 | 19 | 6 | 9.7 | 22.5 | 0.00 | 0.00 | 0.00 | 69 | 1006.9 |
| 20260506175041 | 19 | 31 | 8.0 | 25.7 | 0.00 | 0.00 | 0.00 | 68 | 1007.0 |
| 20260506174531 | 19 | 30 | 11.3 | 25.7 | 0.00 | 0.00 | 0.00 | 68 | 1007.0 |
| 20260506174021 | 19 | 53 | 4.8 | 20.9 | 0.00 | 0.00 | 0.00 | 68 | 1007.0 |
| 20260506173551 | 20 | 20 | 9.7 | 20.9 | 0.00 | 0.00 | 0.00 | 67 | 1007.1 |
| 20260506173040 | 20 | 27 | 4.8 | 19.3 | 0.00 | 0.00 | 0.00 | 68 | 1007.1 |
| 20260506172550 | 19 | 62 | 8.0 | 19.3 | 0.00 | 0.00 | 0.00 | 68 | 1007.0 |
| 20260506172022 | 19 | 334 | 8.0 | 17.7 | 0.00 | 0.00 | 0.00 | 70 | 1007.0 |
| 20260506171534 | 18 | 330 | 6.4 | 24.1 | 0.00 | 0.00 | 0.00 | 70 | 1007.1 |
| 20260506171025 | 18 | 40 | 6.4 | 14.5 | 0.00 | 0.00 | 0.00 | 70 | 1007.1 |
| 20260506170556 | 18 | 38 | 6.4 | 12.9 | 0.00 | 0.00 | 0.00 | 70 | 1007.2 |
| 20260506170025 | 18 | 26 | 4.8 | 16.1 | 0.00 | 0.00 | 0.00 | 70 | 1007.3 |
| 20260506165536 | 18 | 5 | 9.7 | 19.3 | 0.00 | 0.00 | 0.00 | 70 | 1007.4 |
| 20260506165026 | 18 | 6 | 8.0 | 22.5 | 0.00 | 0.00 | 0.00 | 70 | 1007.3 |
| 20260506164536 | 18 | 343 | 6.4 | 22.5 | 0.00 | 0.00 | 0.00 | 70 | 1007.4 |
| 20260506164027 | 19 | 39 | 8.0 | 22.5 | 0.00 | 0.00 | 0.00 | 69 | 1007.4 |
| 20260506163520 | 19 | 70 | 8.0 | 20.9 | 0.00 | 0.00 | 0.00 | 69 | 1007.5 |
| 20260506163051 | 19 | 42 | 6.4 | 24.1 | 0.00 | 0.00 | 0.00 | 69 | 1007.6 |
| 20260506162542 | 19 | 30 | 11.3 | 27.4 | 0.00 | 0.00 | 0.00 | 68 | 1007.7 |
| 20260506162051 | 19 | 63 | 6.4 | 27.4 | 0.00 | 0.00 | 0.00 | 68 | 1007.8 |
| 20260506161519 | 19 | 335 | 6.4 | 22.5 | 0.00 | 0.00 | 0.00 | 68 | 1007.8 |
| 20260506161030 | 19 | 40 | 6.4 | 17.7 | 0.00 | 0.00 | 0.00 | 68 | 1007.8 |
| 20260506160521 | 19 | 40 | 6.4 | 17.7 | 0.00 | 0.00 | 0.00 | 68 | 1008.0 |
| 20260506160032 | 20 | 358 | 4.8 | 22.5 | 0.00 | 0.00 | 0.00 | 68 | 1008.1 |
| 20260506155544 | 20 | 328 | 9.7 | 22.5 | 0.00 | 0.00 | 0.00 | 67 | 1008.3 |
| 20260506155034 | 20 | 24 | 8.0 | 19.3 | 0.00 | 0.00 | 0.00 | 67 | 1008.3 |
| 20260506154545 | 20 | 269 | 8.0 | 22.5 | 0.00 | 0.00 | 0.00 | 66 | 1008.4 |
| 20260506154019 | 20 | 44 | 6.4 | 22.5 | 0.00 | 0.00 | 0.00 | 65 | 1008.4 |
| 20260506153531 | 20 | 306 | 4.8 | 19.3 | 0.00 | 0.00 | 0.00 | 65 | 1008.5 |
| 20260506153022 | 20 | 23 | 8.0 | 20.9 | 0.00 | 0.00 | 0.00 | 66 | 1008.4 |
| 20260506152533 | 20 | 22 | 8.0 | 20.9 | 0.00 | 0.00 | 0.00 | 66 | 1008.6 |
| 20260506152023 | 20 | 1 | 9.7 | 25.7 | 0.00 | 0.00 | 0.00 | 66 | 1008.7 |
| 20260506151534 | 20 | 68 | 12.9 | 25.7 | 0.00 | 0.00 | 0.00 | 67 | 1008.7 |
| 20260506151024 | 20 | 30 | 6.4 | 24.1 | 0.00 | 0.00 | 0.00 | 68 | 1008.8 |
| 20260506150534 | 20 | 4 | 11.3 | 24.1 | 0.00 | 0.00 | 0.00 | 68 | 1008.8 |
| 20260506150024 | 20 | 32 | 3.2 | 20.9 | 0.00 | 0.00 | 0.00 | 69 | 1008.9 |
| 20260506145556 | 19 | 23 | 8.0 | 22.5 | 0.00 | 0.00 | 0.00 | 69 | 1008.8 |
| 20260506145028 | 19 | 49 | 4.8 | 24.1 | 0.00 | 0.00 | 0.00 | 69 | 1008.8 |
| 20260506144519 | 19 | 49 | 9.7 | 24.1 | 0.00 | 0.00 | 0.00 | 69 | 1008.7 |
| 20260506144030 | 19 | 345 | 9.7 | 22.5 | 0.00 | 0.00 | 0.00 | 70 | 1008.7 |
| 20260506143521 | 18 | 330 | 8.0 | 24.1 | 0.00 | 0.00 | 0.00 | 71 | 1008.7 |
| 20260506143033 | 18 | 32 | 12.9 | 24.1 | 0.00 | 0.00 | 0.00 | 71 | 1008.6 |
| 20260506142524 | 18 | 320 | 8.0 | 25.7 | 0.00 | 0.00 | 0.00 | 72 | 1008.6 |
| 20260506142035 | 18 | 29 | 9.7 | 25.7 | 0.00 | 0.00 | 0.00 | 73 | 1008.7 |
| 20260506141526 | 18 | 49 | 8.0 | 25.7 | 0.00 | 0.00 | 0.00 | 74 | 1008.7 |
| 20260506141040 | 17 | 50 | 6.4 | 17.7 | 0.00 | 0.00 | 0.00 | 74 | 1008.7 |
| 20260506140530 | 17 | 23 | 9.7 | 17.7 | 0.00 | 0.00 | 0.00 | 74 | 1008.8 |
| 20260506140021 | 17 | 9 | 8.0 | 17.7 | 0.00 | 0.00 | 0.00 | 75 | 1008.9 |
| 20260506135531 | 17 | 44 | 8.0 | 22.5 | 0.00 | 0.00 | 0.00 | 75 | 1008.8 |
| 20260506135041 | 17 | 43 | 9.7 | 22.5 | 0.00 | 0.00 | 0.00 | 75 | 1009.0 |
| 20260506134531 | 17 | 349 | 8.0 | 25.7 | 0.00 | 0.00 | 0.00 | 75 | 1009.2 |
| 20260506134021 | 17 | 30 | 8.0 | 25.7 | 0.00 | 0.00 | 0.00 | 75 | 1009.2 |
| 20260506133532 | 17 | 20 | 8.0 | 24.1 | 0.00 | 0.00 | 0.00 | 75 | 1009.3 |
| 20260506133022 | 17 | 334 | 4.8 | 24.1 | 0.00 | 0.00 | 0.00 | 76 | 1009.3 |
| 20260506132534 | 17 | 359 | 11.3 | 24.1 | 0.00 | 0.00 | 0.00 | 76 | 1009.2 |
| 20260506132028 | 17 | 31 | 6.4 | 16.1 | 0.00 | 0.00 | 0.00 | 76 | 1009.1 |
| 20260506131538 | 17 | 53 | 9.7 | 25.7 | 0.00 | 0.00 | 0.00 | 76 | 1009.1 |
| 20260506131029 | 17 | 345 | 8.0 | 27.4 | 0.00 | 0.00 | 0.00 | 76 | 1009.1 |